Change the Weather History Date:

Thursday, July 19, 2012

  Actual Average (KLOT) Record (KLOT)
Temperature  
Mean Temperature 78 °F 74 °F  
Max Temperature 86 °F 84 °F 98 °F (2011)
Min Temperature 70 °F 64 °F 57 °F (2003)
Degree Days  
Heating Degree Days 0 0  
Month to date heating degree days 0  
Since 1 June heating degree days 33  
Since 1 July heating degree days 0  
Cooling Degree Days 13 9  
Month to date cooling degree days 171  
Year to date cooling degree days 409  
Since 1 June cooling degree days 351  
Growing Degree Days 28 (Base 50)    
Moisture  
Dew Point 68 °F    
Average Humidity 75    
Maximum Humidity 94    
Minimum Humidity 56    
Precipitation  
Precipitation 0.00 in 0.15 in 0.58 in (2012)
Month to date precipitation 2.70  
Year to date precipitation 21.74  
Sea Level Pressure  
Sea Level Pressure 29.90 in    
Wind  
Wind Speed 6 mph (NNE)    
Max Wind Speed 16 mph    
Max Gust Speed 24 mph    
Visibility 10 miles    
Events Rain , Thunderstorm    
T = Trace of Precipitation, MM = Missing Value Source: NWS Daily Summary

Daily Weather History Graph

Daily Weather History Graph

Search for Another Location

Airport or City:

Trip Planner

Search our weather history database for the weather conditions in past years. The results will help you decide how hot, cold, wet, or windy it might be!

Date:

Astronomy

Jul. 19, 2012 Rise Set
Actual Time 5:36 AM CDT 8:22 PM CDT
Civil Twilight 5:04 AM CDT 8:54 PM CDT
Nautical Twilight 4:23 AM CDT 9:35 PM CDT
Astronomical Twilight 3:36 AM CDT 10:22 PM CDT
Moon 6:12 AM CDT (7/19) 8:27 PM CDT (7/19)
Length of Visible Light 15h 50m
Length of Day
14h 45m
New Moon, 0% of the Moon is Illuminated
Jul 19
New Moon
Jul 26
First Quarter
Aug 1
Full
Aug 9
Last Quarter
Aug 17
New

Hourly Weather History & Observations

Time (CDT) Temp. Heat Index Dew Point Humidity Pressure Visibility Wind Dir Wind Speed Gust Speed Precip Events Conditions
12:15 AM 73.4 °F - 65.7 °F 77% 29.88 in 10.0 mi East 8.1 mph - N/A   Scattered Clouds
12:35 AM 73.8 °F - 65.7 °F 76% 29.96 in 10.0 mi NW 16.1 mph 24.2 mph N/A Thunderstorm Mostly Cloudy
12:55 AM 73.2 °F - 65.3 °F 76% 29.93 in 10.0 mi North 4.6 mph - N/A Thunderstorm Mostly Cloudy
1:15 AM 71.6 °F - 66.2 °F 83% 29.90 in 10.0 mi ESE 5.8 mph - N/A Rain , Thunderstorm Light Thunderstorms and Rain
1:35 AM 71.8 °F - 65.8 °F 81% 29.88 in 10.0 mi East 8.1 mph - N/A Thunderstorm Scattered Clouds
1:55 AM 72.1 °F - 66.4 °F 82% 29.91 in 10.0 mi Calm Calm - N/A Rain , Thunderstorm Light Thunderstorms and Rain
2:15 AM 70.9 °F - 68.4 °F 92% 29.89 in 10.0 mi SSE 8.1 mph - N/A Rain , Thunderstorm Light Thunderstorms and Rain
2:35 AM 70.9 °F - 68.5 °F 92% 29.91 in 10.0 mi SSW 13.8 mph 18.4 mph N/A   Scattered Clouds
2:55 AM 70.7 °F - 68.0 °F 91% 29.86 in 10.0 mi SSE 11.5 mph - N/A Thunderstorm Thunderstorm
3:15 AM 71.1 °F - 67.8 °F 89% 29.87 in 10.0 mi South 10.4 mph - N/A Thunderstorm Scattered Clouds
3:35 AM 70.3 °F - 68.2 °F 93% 29.86 in 5.0 mi SE 6.9 mph - N/A Rain , Thunderstorm Heavy Thunderstorms and Rain
3:55 AM 70.2 °F - 68.4 °F 94% 29.84 in 5.0 mi SSE 11.5 mph 18.4 mph N/A Rain , Thunderstorm Thunderstorms and Rain
4:15 AM 70.9 °F - 68.9 °F 93% 29.83 in 10.0 mi SE 9.2 mph - N/A   Mostly Cloudy
4:35 AM 71.1 °F - 69.3 °F 94% 29.85 in 10.0 mi ENE 5.8 mph - N/A   Overcast
4:55 AM 71.1 °F - 69.1 °F 93% 29.86 in 10.0 mi ENE 6.9 mph - N/A   Mostly Cloudy
5:15 AM 71.1 °F - 69.3 °F 94% 29.87 in 7.0 mi ENE 4.6 mph - N/A   Mostly Cloudy
5:35 AM 71.1 °F - 69.3 °F 94% 29.87 in 7.0 mi East 6.9 mph - N/A   Mostly Cloudy
5:55 AM 71.1 °F - 69.3 °F 94% 29.87 in 7.0 mi East 5.8 mph - N/A   Mostly Cloudy
6:15 AM 71.1 °F - 69.3 °F 94% 29.88 in 7.0 mi ENE 4.6 mph - N/A   Mostly Cloudy
6:35 AM 70.9 °F - 69.1 °F 94% 29.88 in 7.0 mi ENE 4.6 mph - N/A   Scattered Clouds
7:35 AM 71.4 °F - 68.9 °F 92% 29.89 in 10.0 mi ESE 6.9 mph - N/A   Scattered Clouds
7:55 AM 72.0 °F - 68.7 °F 89% 29.89 in 10.0 mi ESE 5.8 mph - N/A   Scattered Clouds
8:15 AM 72.7 °F - 68.9 °F 88% 29.89 in 10.0 mi SE 6.9 mph - N/A   Mostly Cloudy
8:35 AM 73.6 °F - 68.9 °F 85% 29.89 in 10.0 mi ESE 6.9 mph - N/A   Mostly Cloudy
9:35 AM 77.9 °F - 69.6 °F 76% 29.89 in 10.0 mi SE 9.2 mph - N/A   Clear
9:55 AM 79.0 °F - 70.3 °F 75% 29.89 in 10.0 mi SE 9.2 mph - N/A   Clear
10:15 AM 80.8 °F 84.6 °F 70.9 °F 72% 29.88 in 10.0 mi SE 5.8 mph - N/A   Scattered Clouds
10:35 AM 81.1 °F 84.9 °F 70.7 °F 70% 29.88 in 10.0 mi Calm Calm - N/A   Scattered Clouds
10:55 AM 82.0 °F 85.9 °F 70.0 °F 67% 29.88 in 10.0 mi Calm Calm - N/A   Scattered Clouds
11:15 AM 82.6 °F 86.6 °F 70.2 °F 66% 29.88 in 10.0 mi Calm Calm - N/A   Scattered Clouds
11:35 AM 82.9 °F 87.2 °F 70.3 °F 66% 29.88 in 10.0 mi WSW 3.5 mph - N/A   Mostly Cloudy
11:55 AM 83.3 °F 87.4 °F 70.0 °F 64% 29.89 in 10.0 mi NW 4.6 mph - N/A   Mostly Cloudy
12:15 PM 83.3 °F 87.6 °F 70.5 °F 65% 29.88 in 10.0 mi Calm Calm - N/A   Mostly Cloudy
12:35 PM 83.3 °F 87.9 °F 70.7 °F 66% 29.89 in 10.0 mi Calm Calm - N/A   Overcast
12:55 PM 83.3 °F 87.6 °F 70.5 °F 65% 29.89 in 10.0 mi NNW 5.8 mph - N/A   Overcast
1:15 PM 83.5 °F 87.7 °F 70.2 °F 64% 29.89 in 10.0 mi North 3.5 mph - N/A   Mostly Cloudy
1:35 PM 83.5 °F 87.4 °F 69.6 °F 63% 29.89 in 10.0 mi NW 4.6 mph - N/A   Scattered Clouds
1:55 PM 83.1 °F 87.3 °F 70.2 °F 65% 29.89 in 10.0 mi Calm Calm - N/A   Mostly Cloudy
2:15 PM 83.5 °F 87.4 °F 69.6 °F 63% 29.89 in 10.0 mi NNW 5.8 mph - N/A   Mostly Cloudy
2:35 PM 82.8 °F 87.2 °F 70.9 °F 67% 29.89 in 10.0 mi NNW 4.6 mph - N/A   Scattered Clouds
2:55 PM 84.0 °F 88.1 °F 69.6 °F 62% 29.89 in 10.0 mi North 4.6 mph - N/A   Clear
3:15 PM 83.7 °F 87.5 °F 69.4 °F 62% 29.89 in 10.0 mi North 4.6 mph - N/A   Scattered Clouds
3:35 PM 84.0 °F 88.1 °F 69.6 °F 62% 29.89 in 10.0 mi NNW 5.8 mph - N/A   Mostly Cloudy
3:55 PM 85.3 °F 89.1 °F 68.9 °F 58% 29.89 in 10.0 mi North 5.8 mph - N/A   Scattered Clouds
4:15 PM 84.9 °F 89.4 °F 70.2 °F 61% 29.89 in 10.0 mi North 4.6 mph - N/A   Mostly Cloudy
4:35 PM 86.0 °F 90.1 °F 69.3 °F 57% 29.89 in 10.0 mi NNW 4.6 mph - N/A   Mostly Cloudy
4:55 PM 84.0 °F 87.6 °F 68.9 °F 60% 29.89 in 10.0 mi North 3.5 mph - N/A   Mostly Cloudy
5:15 PM 84.7 °F 88.2 °F 68.7 °F 58% 29.88 in 10.0 mi NNW 6.9 mph - N/A   Mostly Cloudy
5:35 PM 85.3 °F 88.5 °F 68.0 °F 56% 29.89 in 10.0 mi North 3.5 mph - N/A   Scattered Clouds
5:55 PM 84.0 °F 87.3 °F 68.4 °F 59% 29.89 in 10.0 mi NNW 5.8 mph - N/A   Scattered Clouds
6:15 PM 82.4 °F 85.4 °F 68.2 °F 62% 29.89 in 10.0 mi NNW 5.8 mph - N/A   Mostly Cloudy
6:35 PM 81.7 °F 84.3 °F 67.5 °F 62% 29.89 in 10.0 mi North 4.6 mph - N/A   Overcast
6:55 PM 80.6 °F 82.9 °F 67.1 °F 63% 29.89 in 10.0 mi NNW 8.1 mph 16.1 mph N/A   Mostly Cloudy
7:15 PM 79.2 °F - 67.1 °F 66% 29.90 in 10.0 mi NNW 8.1 mph - N/A   Mostly Cloudy
7:35 PM 78.1 °F - 67.1 °F 69% 29.91 in 10.0 mi North 5.8 mph - N/A   Overcast
7:55 PM 76.8 °F - 66.2 °F 70% 29.91 in 10.0 mi North 4.6 mph - N/A   Overcast
8:15 PM 75.2 °F - 65.7 °F 72% 29.92 in 10.0 mi North 5.8 mph - N/A   Mostly Cloudy
8:35 PM 74.3 °F - 65.3 °F 73% 29.93 in 10.0 mi North 4.6 mph - N/A   Scattered Clouds
8:55 PM 72.7 °F - 64.4 °F 75% 29.93 in 10.0 mi NNW 4.6 mph - N/A   Scattered Clouds
9:15 PM 71.6 °F - 63.7 °F 76% 29.94 in 10.0 mi North 4.6 mph - N/A   Clear
9:35 PM 70.7 °F - 63.9 °F 79% 29.94 in 10.0 mi North 3.5 mph - N/A   Clear
9:55 PM 70.7 °F - 64.0 °F 79% 29.96 in 10.0 mi North 4.6 mph - N/A   Scattered Clouds
10:15 PM 71.2 °F - 64.6 °F 79% 29.97 in 10.0 mi Calm Calm - N/A   Mostly Cloudy
10:35 PM 71.6 °F - 64.8 °F 79% 29.97 in 10.0 mi Calm Calm - N/A   Overcast
10:55 PM 72.1 °F - 64.8 °F 78% 29.97 in 10.0 mi Calm Calm - N/A   Overcast
11:15 PM 71.6 °F - 64.4 °F 78% 29.97 in 10.0 mi Calm Calm - N/A   Overcast
11:35 PM 71.2 °F - 64.6 °F 79% 29.97 in 10.0 mi North 3.5 mph - N/A   Overcast